Flag for Canada Weather past 2 weeks in Rainy River, Ontario, Canada

Now
59 °F

Mostly cloudy.


Feels Like: 58 °F
Forecast: 54 / 71 °F
Wind: 8 mph from North

Location: Baudette International Airport

Current Time: Aug 29, 2014 at 11:23:46 PM

Latest Report: Aug 29, 2014 at 10:53 PM


Visibility: 10 mi

Pressure: 29.87 "Hg

Humidity: 90%

Dew point: 56 °F

Location of Rainy RiverLocation

Historic Weather in Rainy River — Graph

°F

Rainy River temperature yesterday

Maximum temperature yesterday: 72 °F (at 12:53 PM)
Minimum temperature yesterday: 49 °F (at 4:53 AM)
Average temperature yesterday: 62 °F

Past Weeks' High & Low Weather Summary

 TemperatureHumidityPressure
High85 °F (Aug 15, 2:53 PM)100% (Aug 18, 11:00 PM)30.21 "Hg (Aug 18, 11:00 PM)
Low45 °F (Aug 27, 12:53 AM)42% (Aug 27, 3:53 PM)29.67 "Hg (Aug 24, 6:53 PM)
Average64 °F83%29.91 "Hg
* Reported Aug 14 9:53 PM — Aug 29 9:53 PM, Rainy River, Weather by CustomWeather, © 2014

Note: Actual official high and low records may vary slightly from our data, if they occured in-between our weather recording intervals... More about our weather records

Advertising

Rainy River weather history for previous 24 hours

 ConditionsComfort  
Time TempWeatherWind HumidityBarometerVisibility
9:53 PM
Aug 29
60 °FMostly cloudy.10 mph86%29.86 "Hg10 mi
8:53 PM60 °FLight rain. Overcast.13 mph90%29.84 "Hg10 mi
7:53 PM62 °FMore clouds than sun.14 mph86%29.81 "Hg10 mi
6:53 PM66 °FCloudy.9 mph90%29.78 "Hg10 mi
5:53 PM67 °FCloudy.9 mph90%29.76 "Hg10 mi
5:02 PM67 °FHeavy rain. Fog.5 mph93%29.76 "Hg1 mi
4:59 PM67 °FRain. Fog.No wind93%29.76 "Hg2 mi
3:53 PM68 °FMostly cloudy.3 mph87%29.75 "Hg10 mi
1:53 PM67 °FLow clouds.5 mph87%29.76 "Hg10 mi
12:53 PM67 °FLow clouds.6 mph87%29.76 "Hg10 mi
11:53 AM65 °FLow clouds.6 mph94%29.78 "Hg10 mi
11:01 AM65 °FFog.5 mph97%29.78 "Hg4 mi
10:53 AM65 °FFog.5 mph94%29.78 "Hg2 mi
9:53 AM64 °FFog.5 mph94%29.79 "Hg5 mi
8:58 AM63 °FFog.3 mph97%29.79 "Hg1 mi
7:53 AM64 °FOvercast.No wind90%29.80 "Hg10 mi
6:53 AM63 °FMostly cloudy.3 mph93%29.80 "Hg10 mi
5:53 AM62 °FOvercast.No wind93%29.81 "Hg10 mi
4:53 AM63 °FMostly cloudy.3 mph90%29.81 "Hg10 mi
3:53 AM63 °FOvercast.No wind93%29.82 "Hg10 mi
2:53 AM64 °FMostly cloudy.No wind90%29.85 "Hg10 mi
1:53 AM64 °FOvercast.No wind90%29.84 "Hg10 mi
12:53 AM65 °FMostly cloudy.3 mph87%29.85 "Hg10 mi
11:53 PM
Aug 28
66 °FMostly cloudy.6 mph84%29.87 "Hg10 mi
Weather by CustomWeather, © 2014

See weather overviewHow to use our weather pages